Погода в Богандинском

Россия / Тюменская область     56°53′34″N   65°53′29″E
темп.,
°C
ветер,
м/с
пор.,
м/с
влажн.,
%
обл.,
%
осадки,
мм/ч
давл.,
гПа
погр.,
м
6 марта, сб
сб623:00−5юз2493100 0.0 997105
02:00−6з3894100 0.2 997248
05:00−10з5129196 0.2 1000355
08:00−12з5138870 0.0 1003482
11:00−8з6117736 0.0 1005903
14:00−5з6107750 0.0 10051330
17:00−6зюз598475 0.1 1006975
20:00−7зюз41194100 0.4 1007701
7 марта, вс
вс723:00−11з4108994 0.6 1009282
02:00−14з39915 0.0 1010214
05:00−18зюз23942 0.0 101243
08:00−18юз239341 0.0 101246
11:00−12ююз238343 0.0 1012280
14:00−10юв2388100 0.0 1010327
17:00−8всв3595100 0.4 1007398
20:00−9св3696100 1.1 1003313
8 марта, пн
пн823:00−9с4795100 2.5 1001318
02:00−11сз51093100 0.8 1002498
05:00−14зсз5109399 0.9 1005310
08:00−19з389650 0.0 1007200
11:00−13зюз368945 0.0 1009378
14:00−11ююз478566 0.0 1009613
17:00−10ю488883 0.0 1008707
20:00−12ю499499 0.1 1007311
9 марта, вт
вт923:00−11ю4109499 0.1 1006336
02:00−8ю5119396 0.1 1004535
05:00−7ююз6139197 0.3 1003641
08:00−6ююз51291100 0.1 1002700
11:00−4юз4891100 0.7 1003768
14:00−2юз4686100 0.6 1003866
17:00−3з378193 1.4 1004679
20:00−9з228651 0.0 100521
10 марта, ср
ср1023:00−8з119775 0.5 100823
02:00−9зюз3696100 0.2 1008196
05:00−15юз359580 0.3 100994
08:00−16зюз379478 0.0 1009179
11:00−12зюз359163 0.0 1009352
14:00−8з358279 0.0 1010878
17:00−9зсз368389 0.1 1009826
20:00−16зсз239446 0.0 101035